Voltar ao catálogo

COSMOS 1490

GLONASS

AtivoNavegaçãoMEO
NORAD 14258·PAYLOAD·🇷🇺 Russia

Lançado Aug 10, 1983 de Baikonur Cosmodrome

Loading…

Próximas Passagens (próximas 24 horas)

TLE

AtualizadoSource: Space-Track

Época: Sep 12, 2026, 06:57 UTC

1 14258U 83084A   26255.29000836 -.00000002  00000-0  00000-0 0  9994
2 14258  64.9083  69.8163 0015064  19.7046 337.5928  2.13103275335291

Acompanhe COSMOS 1490 em tempo real com AllMySat

Download on the App Store